LFPO

Paris/Orly Airport

Airport
ICAO code
LFPO
IATA Code
ORY
Summary
ICAO Region
EUR
ICAO Territory
Location

Orly, Ile-de-France

Serving
Paris
Elevation
291 ft
Coordinates
48° 43' 34" N , 2° 21' 51" E
KCC
Airport LOS
Parallel Runway Operation
Metar
Observation
LFPO 010100Z AUTO 03010KT 6000 BKN009 05/04 Q1025 NOSIG
Station
Paris-Orly
Date/Time
2022-12-01 01:00:00
Wind direction
30°
Wind speed
10 kts
Lowest cloud amount
broken clouds
Temperature
5°C
Dew point
4°C
Humidity
93%
QNH
1025 hPa
Weather condition
n/a

Description

Busy domestic and limited international airport approximately 7 nm to the south of Paris.

Climatology

Temperate Marine climate/Oceanic climate (Köppen climate classification Cfb). Moderately cool summer and comparatively warm winter. Prevailing south-westerly winds from the Atlantic Ocean.

Runways

Designator Length Width Surface Rops
2/20 2400 60 CON Yes/Yes
8/26 3320 45 CON Yes/Yes
6/24 3650 45 ASP Yes/Yes

SKYbrary Partners:

Safety knowledge contributed by: